Date String (YYYY-MM-DD hh:mm:ss) UTC,Instrument flags,Ambient pressure (hPa),Sample flow (lpm),Bypass flow (lpm),Sample temperature (°C),Ambient temperature (°C),ASC tube jacket temperature (°C),LED temperature (°C),Box temperature (°C),Sample RH (%),Span deviation,Mass concentration (μg/m³),Mass concentration (μg/m³),Mass concentration (μg/m³)
DateTimeUTC,F1_M11,P_M11,Q1_M11,Q2_M11,T1_M11,T2_M11,T3_M11,T4_M11,T5_M11,U1_M11,ZSPAN_M11,X2_M11,X0_M11,X1_M11
2022-08-02 19:00:00,,0825.5,5.00,0.00,29.2,27.3,00.0,37.9,31.0,22.3,0000.0,0002.11,0003.19,0001.61
2022-08-02 19:01:00,,0825.5,5.00,0.00,29.2,27.2,00.0,37.9,31.0,22.7,0000.0,0002.07,0003.10,0001.62
2022-08-02 19:02:00,,0825.4,5.00,0.00,29.2,27.3,00.0,37.9,31.0,21.8,0000.0,0002.08,0004.49,0001.63
2022-08-02 19:03:00,,0825.4,5.00,0.00,29.1,27.4,00.0,37.9,30.9,22.7,0000.0,0002.11,0004.69,0001.62
2022-08-02 19:04:00,,0825.4,5.00,0.00,29.2,27.6,00.0,37.9,31.0,23.2,0000.0,0002.12,0004.70,0001.62
2022-08-02 19:05:00,,0825.4,5.00,0.00,29.2,27.8,00.0,37.9,31.1,23.6,0000.0,0002.16,0005.06,0001.64
2022-08-02 19:06:00,,0825.4,5.00,0.00,29.2,28.0,00.0,37.9,31.2,23.9,0000.0,0002.16,0005.07,0001.63
2022-08-02 19:07:00,,0825.4,5.01,0.00,29.3,28.1,00.0,37.9,31.2,23.0,0000.0,0002.20,0005.13,0001.65
2022-08-02 19:08:00,,0825.4,5.00,0.00,29.3,27.6,00.0,37.9,31.1,23.1,0000.0,0002.16,0005.02,0001.66
2022-08-02 19:09:00,,0825.4,5.00,0.00,29.2,27.2,00.0,37.9,31.0,22.9,0000.0,0002.11,0004.89,0001.67
2022-08-02 19:10:00,,0825.3,5.01,0.00,29.2,27.2,00.0,37.9,31.1,22.9,0000.0,0002.06,0004.82,0001.66
2022-08-02 19:11:00,,0825.3,4.99,0.00,29.2,27.3,00.0,37.9,31.0,22.3,0000.0,0001.99,0004.69,0001.65
2022-08-02 19:12:00,,0825.4,4.99,0.00,29.2,27.5,00.0,37.9,31.0,22.5,0000.0,0001.98,0004.66,0001.63
2022-08-02 19:13:00,,0825.3,5.01,0.00,29.2,27.7,00.0,37.9,31.1,21.9,0000.0,0001.97,0003.42,0001.62
2022-08-02 19:14:00,,0825.3,5.00,0.00,29.3,28.0,00.0,37.9,31.2,21.8,0000.0,0001.93,0003.00,0001.63
2022-08-02 19:15:00,,0825.3,5.00,0.00,29.3,28.0,00.0,37.9,31.2,21.2,0000.0,0001.86,0002.86,0001.60
2022-08-02 19:16:00,,0825.3,4.99,0.00,29.3,27.5,00.0,37.9,31.1,21.1,0000.0,0001.81,0002.55,0001.57
2022-08-02 19:17:00,,0825.3,5.01,0.00,29.2,27.1,00.0,37.9,31.0,22.6,0000.0,0001.79,0002.46,0001.54
2022-08-02 19:18:00,,0825.3,5.00,0.00,29.2,27.2,00.0,37.9,31.0,22.5,0000.0,0001.77,0002.43,0001.53
2022-08-02 19:19:00,,0825.3,5.00,0.00,29.2,27.3,00.0,37.9,31.0,22.2,0000.0,0001.85,0002.68,0001.54
2022-08-02 19:20:00,,0825.2,5.00,0.00,29.2,27.5,00.0,37.9,31.0,22.3,0000.0,0001.94,0002.99,0001.55
2022-08-02 19:21:00,,0825.2,5.00,0.00,29.2,27.7,00.0,37.9,31.1,22.4,0000.0,0001.96,0004.11,0001.57
2022-08-02 19:22:00,,0825.2,5.01,0.00,29.3,27.9,00.0,37.9,31.1,22.8,0000.0,0001.97,0004.01,0001.58
2022-08-02 19:23:00,,0825.2,5.00,0.00,29.3,28.0,00.0,38.0,31.2,22.3,0000.0,0002.00,0004.01,0001.61
2022-08-02 19:24:00,,0825.2,5.00,0.00,29.3,27.5,00.0,37.9,31.1,22.9,0000.0,0002.04,0004.12,0001.63
2022-08-02 19:25:00,,0825.2,5.01,0.00,29.2,27.2,00.0,37.9,31.1,23.0,0000.0,0002.09,0004.58,0001.67
2022-08-02 19:26:00,,0825.1,4.99,0.00,29.2,27.2,00.0,37.9,31.0,23.3,0000.0,0002.16,0004.92,0001.72
2022-08-02 19:27:00,,0825.1,5.02,0.00,29.2,27.3,00.0,37.9,31.0,23.8,0000.0,0002.30,0005.31,0001.77
2022-08-02 19:28:00,,0825.0,5.00,0.00,29.2,27.5,00.0,37.9,31.0,23.3,0000.0,0002.35,0005.40,0001.82
2022-08-02 19:29:00,,0825.0,5.00,0.00,29.2,27.7,00.0,37.9,31.1,23.7,0000.0,0002.37,0005.39,0001.85
2022-08-02 19:30:00,,0825.0,5.00,0.00,29.3,27.9,00.0,37.9,31.2,23.7,0000.0,0002.33,0005.23,0001.88
2022-08-02 19:31:00,,0824.9,5.00,0.00,29.3,28.0,00.0,38.0,31.2,23.5,0000.0,0002.32,0005.13,0001.89
2022-08-02 19:32:00,,0824.9,5.01,0.00,29.3,27.5,00.0,37.9,31.1,23.8,0000.0,0002.37,0004.25,0001.92
2022-08-02 19:33:00,,0824.9,4.99,0.00,29.2,27.2,00.0,37.9,31.0,23.2,0000.0,0002.43,0004.25,0001.94
2022-08-02 19:34:00,,0824.9,4.99,0.00,29.2,27.2,00.0,37.9,31.1,23.3,0000.0,0002.40,0004.18,0001.95
2022-08-02 19:35:00,,0824.9,5.00,0.00,29.2,27.4,00.0,37.9,31.0,23.0,0000.0,0002.40,0004.12,0001.96
2022-08-02 19:36:00,,0824.8,5.00,0.00,29.2,27.5,00.0,37.9,31.0,23.3,0000.0,0002.38,0003.83,0001.95
2022-08-02 19:37:00,,0824.8,5.00,0.00,29.2,27.8,00.0,37.9,31.1,23.1,0000.0,0002.38,0003.56,0001.93
2022-08-02 19:38:00,,0824.7,4.99,0.00,29.3,28.0,00.0,37.9,31.2,22.5,0000.0,0002.32,0003.42,0001.91
2022-08-02 19:39:00,,0824.5,5.00,0.00,29.3,28.0,00.0,38.0,31.2,23.2,0000.0,0002.35,0003.63,0001.89
2022-08-02 19:40:00,,0824.9,5.01,0.00,29.3,27.6,00.0,37.9,31.2,23.5,0000.0,0002.40,0003.88,0001.87
2022-08-02 19:41:00,,0824.8,4.99,0.00,29.3,27.3,00.0,37.9,31.1,22.6,0000.0,0002.40,0003.89,0001.87
2022-08-02 19:42:00,,0824.9,5.01,0.00,29.3,27.3,00.0,37.9,31.1,21.8,0000.0,0002.37,0003.81,0001.86
2022-08-02 19:43:00,,0824.8,5.00,0.00,29.2,27.5,00.0,37.9,31.1,21.6,0000.0,0002.31,0003.67,0001.83
2022-08-02 19:44:00,,0824.9,4.99,0.00,29.2,27.6,00.0,37.9,31.1,21.5,0000.0,0002.28,0003.62,0001.81
2022-08-02 19:45:00,,0824.9,5.00,0.00,29.3,27.9,00.0,37.9,31.2,21.6,0000.0,0002.29,0003.67,0001.79
2022-08-02 19:46:00,,0824.9,5.00,0.00,29.3,28.1,00.0,38.0,31.2,20.8,0000.0,0002.23,0003.55,0001.77
2022-08-02 19:47:00,,0824.9,5.00,0.00,29.4,28.2,00.0,38.0,31.3,21.0,0000.0,0002.25,0003.59,0001.75
2022-08-02 19:48:00,,0824.9,4.99,0.00,29.3,27.7,00.0,38.0,31.2,21.7,0000.0,0002.26,0003.60,0001.74
2022-08-02 19:49:00,,0824.9,5.01,0.00,29.3,27.3,00.0,38.0,31.1,22.7,0000.0,0002.25,0004.11,0001.74
2022-08-02 19:50:00,,0824.9,5.00,0.00,29.3,27.3,00.0,38.0,31.1,22.8,0000.0,0002.27,0004.07,0001.76
2022-08-02 19:51:00,,0824.9,5.01,0.00,29.3,27.4,00.0,38.0,31.0,22.5,0000.0,0002.24,0003.87,0001.78
2022-08-02 19:52:00,,0824.9,5.00,0.00,29.3,27.6,00.0,38.0,31.1,22.1,0000.0,0002.22,0003.83,0001.77
2022-08-02 19:53:00,,0824.8,4.99,0.00,29.3,27.8,00.0,38.0,31.2,22.3,0000.0,0002.23,0003.81,0001.77
2022-08-02 19:54:00,,0824.8,5.00,0.00,29.3,28.1,00.0,38.0,31.2,22.9,0000.0,0002.28,0003.91,0001.78
2022-08-02 19:55:00,,0824.8,5.00,0.00,29.4,27.8,00.0,38.0,31.2,22.9,0000.0,0002.30,0004.01,0001.81
2022-08-02 19:56:00,,0824.8,4.98,0.00,29.3,27.2,00.0,38.0,31.1,23.4,0000.0,0002.33,0005.20,0001.83
2022-08-02 19:57:00,,0824.9,4.99,0.00,29.3,27.2,00.0,38.0,31.1,22.8,0000.0,0002.35,0005.62,0001.84
2022-08-02 19:58:00,,0824.8,5.01,0.00,29.3,27.3,00.0,38.0,31.0,23.0,0000.0,0002.35,0005.72,0001.86
2022-08-02 19:59:00,,0824.8,4.99,0.00,29.2,27.5,00.0,38.0,31.0,22.9,0000.0,0002.33,0005.65,0001.89
